N1GCN Weather Reports


Display with metric or nautical units.
time (UTC)temp
F
wind
direction
speed
MPH
gust
MPH
rain 1hr
in
rain 24hr
in
rain mn
in
humidity
%
barometer
mb
20260905230003 69 0 0.0 1.0 0.00 0.00 0.00 85 999.9
20260905220000 70 0 0.0 1.0 0.00 0.00 0.00 87 999.8
20260905213012 70 0 0.0 1.0 0.00 0.00 0.00 87 999.5
20260905210001 70 0 0.0 1.0 0.00 0.00 0.00 87 999.3
20260905203013 70 0 0.0 3.0 0.00 0.00 0.00 83 999.1
20260905200001 72 0 0.0 3.0 0.00 0.00 0.00 78 999.1
20260905193013 72 1 0.0 1.0 0.00 0.00 0.00 80 998.9
20260905190001 72 1 0.0 3.0 0.00 0.00 0.00 80 999.0
20260905183013 70 1 0.0 1.0 0.00 0.00 0.00 86 999.0
20260905173013 74 1 0.0 10.0 0.00 0.00 0.00 71 999.0
20260905170002 75 1 0.0 5.0 0.00 0.00 0.00 71 999.0
20260905163014 76 1 2.0 9.0 0.00 0.00 0.00 68 999.0
20260905160002 76 16 1.0 6.0 0.00 0.00 0.00 71 998.9
20260905153013 74 0 1.0 9.0 0.00 0.00 0.00 72 999.2
20260905150003 75 1 0.0 3.0 0.00 0.00 0.00 75 999.2
20260905143013 74 1 0.0 6.0 0.00 0.00 0.00 74 999.0
20260905140002 73 2 0.0 5.0 0.00 0.00 0.00 74 999.2
20260905130003 68 2 0.0 3.0 0.00 0.00 0.00 84 999.6
20260905123014 63 2 0.0 2.0 0.00 0.00 0.00 90 999.7
20260905120003 62 2 0.0 0.0 0.00 0.00 0.00 93 999.7
20260905113014 61 2 0.0 0.0 0.00 0.00 0.00 93 999.3
20260905103014 60 1 0.0 0.0 0.00 0.01 0.00 91 998.6
20260905100003 60 1 0.0 1.0 0.00 0.01 0.00 91 998.5
20260905093014 60 1 0.0 0.0 0.00 0.01 0.00 91 998.2
20260905090003 60 1 0.0 0.0 0.00 0.01 0.00 91 998.2
20260905083014 60 1 0.0 0.0 0.00 0.02 0.00 90 998.4
20260905080004 61 1 0.0 0.0 0.00 0.08 0.00 88 998.3
20260905073014 61 1 0.0 2.0 0.00 0.08 0.00 88 998.2
20260905063015 62 1 0.0 0.0 0.00 0.08 0.00 89 998.5
20260905060004 62 1 0.0 0.0 0.00 0.08 0.00 90 998.8
20260905053015 63 1 0.0 0.0 0.00 0.08 0.00 89 998.7
20260905050004 63 1 0.0 0.0 0.00 0.08 0.00 87 999.0
20260905043016 64 1 0.0 0.0 0.00 0.08 0.00 84 999.1
20260905040005 64 1 0.0 0.0 0.00 0.08 0.00 83 999.2
20260905033015 65 1 0.0 1.0 0.00 0.08 0.08 84 999.0
20260905023012 65 1 0.0 0.0 0.00 0.08 0.08 85 999.3
20260905020000 65 1 0.0 0.0 0.00 0.08 0.08 84 999.5
20260905013011 66 1 0.0 0.0 0.00 0.08 0.08 82 999.6
20260905003012 68 1 0.0 0.0 0.00 0.08 0.08 82 999.6
20260905000000 69 2 0.0 0.0 0.00 0.08 0.08 79 999.3
20260904233012 71 1 0.0 0.0 0.00 0.08 0.08 74 999.1